Date String (YYYY-MM-DD hh:mm:ss) UTC,Instrument flags,Ambient pressure (hPa),Sample flow (lpm),Bypass flow (lpm),Sample temperature (°C),Ambient temperature (°C),ASC tube jacket temperature (°C),LED temperature (°C),Box temperature (°C),Sample RH (%),Span deviation,Mass concentration (μg/m³),Mass concentration (μg/m³),Mass concentration (μg/m³)
DateTimeUTC,F1_M11,P_M11,Q1_M11,Q2_M11,T1_M11,T2_M11,T3_M11,T4_M11,T5_M11,U1_M11,ZSPAN_M11,X0_M11,X2_M11,X1_M11
2021-11-11 17:00:00,,0827.5,5.00,0.00,24.1,23.2,00.0,33.0,26.0,11.2,0000.0,0013.61,0004.93,0004.06
2021-11-11 17:01:00,,0827.4,5.01,0.00,24.1,23.2,00.0,33.0,26.0,11.3,0000.0,0013.96,0005.02,0004.08
2021-11-11 17:02:00,,0827.4,5.00,0.00,24.1,23.2,00.0,33.0,26.0,11.4,0000.0,0014.26,0005.03,0004.07
2021-11-11 17:03:00,,0827.4,5.00,0.00,24.1,23.2,00.0,33.0,25.9,11.3,0000.0,0014.56,0005.06,0004.08
2021-11-11 17:04:00,,0827.4,5.00,0.00,24.1,23.2,00.0,33.0,25.9,11.2,0000.0,0013.84,0005.03,0004.08
2021-11-11 17:05:00,,0827.4,5.00,0.00,24.1,23.2,00.0,33.0,25.9,11.2,0000.0,0013.33,0005.05,0004.09
2021-11-11 17:06:00,,0827.4,5.00,0.00,24.0,23.2,00.0,33.0,25.9,11.1,0000.0,0012.41,0005.11,0004.10
2021-11-11 17:07:00,,0827.4,4.99,0.00,24.1,23.2,00.0,33.0,25.9,11.2,0000.0,0012.79,0005.10,0004.10
2021-11-11 17:08:00,,0827.5,5.01,0.00,24.1,23.2,00.0,33.0,25.9,11.3,0000.0,0013.05,0005.08,0004.10
2021-11-11 17:09:00,,0827.6,4.99,0.00,24.1,23.2,00.0,33.0,25.9,11.2,0000.0,0013.35,0005.09,0004.09
2021-11-11 17:10:00,,0827.5,5.01,0.00,24.1,23.2,00.0,33.0,25.9,11.3,0000.0,0013.41,0005.11,0004.10
2021-11-11 17:11:00,,0827.5,5.00,0.00,24.1,23.2,00.0,33.0,26.0,11.3,0000.0,0012.81,0005.04,0004.09
2021-11-11 17:12:00,,0827.5,5.00,0.00,24.1,23.3,00.0,33.1,26.0,11.4,0000.0,0012.26,0005.00,0004.08
2021-11-11 17:13:00,,0827.5,4.99,0.00,24.1,23.3,00.0,33.0,25.9,11.4,0000.0,0012.38,0005.00,0004.08
2021-11-11 17:14:00,,0827.4,5.01,0.00,24.1,23.3,00.0,33.0,25.9,11.4,0000.0,0012.42,0004.99,0004.08
2021-11-11 17:15:00,,0827.4,4.99,0.00,24.1,23.3,00.0,33.1,25.9,11.5,0000.0,0012.05,0004.99,0004.08
2021-11-11 17:16:00,,0827.4,5.02,0.00,24.1,23.3,00.0,33.1,26.0,11.6,0000.0,0012.41,0004.99,0004.09
2021-11-11 17:17:00,,0827.4,4.99,0.00,24.1,23.3,00.0,33.1,26.0,11.5,0000.0,0013.50,0004.99,0004.10
2021-11-11 17:18:00,,0827.4,5.00,0.00,24.1,23.3,00.0,33.1,26.0,11.4,0000.0,0014.49,0005.01,0004.11
2021-11-11 17:19:00,,0827.4,5.00,0.00,24.2,23.4,00.0,33.1,26.0,11.4,0000.0,0015.58,0005.07,0004.12
2021-11-11 17:20:00,,0827.4,5.00,0.00,24.2,23.4,00.0,33.1,26.0,11.3,0000.0,0016.03,0005.11,0004.13
2021-11-11 17:21:00,,0827.4,4.99,0.00,24.2,23.4,00.0,33.1,26.1,11.2,0000.0,0016.07,0005.12,0004.13
2021-11-11 17:22:00,,0827.4,5.00,0.00,24.2,23.4,00.0,33.1,26.0,11.2,0000.0,0016.33,0005.11,0004.13
2021-11-11 17:23:00,,0827.4,5.00,0.00,24.2,23.4,00.0,33.1,26.1,11.2,0000.0,0016.85,0005.15,0004.14
2021-11-11 17:24:00,,0827.4,5.01,0.00,24.2,23.4,00.0,33.1,26.1,11.3,0000.0,0016.96,0005.19,0004.15
2021-11-11 17:25:00,,0827.2,5.00,0.00,24.2,23.5,00.0,33.1,26.1,11.2,0000.0,0017.20,0005.23,0004.14
2021-11-11 17:26:00,,0827.4,5.01,0.00,24.2,23.5,00.0,33.2,26.1,11.2,0000.0,0017.63,0005.27,0004.13
2021-11-11 17:27:00,,0827.3,5.00,0.00,24.2,23.5,00.0,33.2,26.1,11.2,0000.0,0019.11,0005.27,0004.10
2021-11-11 17:28:00,,0827.2,5.00,0.00,24.3,23.5,00.0,33.2,26.2,11.2,0000.0,0018.59,0005.21,0004.07
2021-11-11 17:29:00,,0827.3,5.01,0.00,24.3,23.5,00.0,33.2,26.2,11.3,0000.0,0017.15,0005.17,0004.05
2021-11-11 17:30:00,,0827.4,4.99,0.00,24.3,23.5,00.0,33.2,26.2,11.4,0000.0,0016.36,0005.12,0004.03
2021-11-11 17:31:00,,0827.5,5.00,0.00,24.3,23.5,00.0,33.2,26.2,11.2,0000.0,0016.07,0005.08,0004.00
2021-11-11 17:32:00,,0827.5,5.00,0.00,24.3,23.5,00.0,33.2,26.2,10.9,0000.0,0017.19,0005.05,0003.97
2021-11-11 17:33:00,,0827.4,5.00,0.00,24.3,23.6,00.0,33.2,26.2,10.9,0000.0,0017.71,0005.03,0003.94
2021-11-11 17:34:00,,0827.3,5.00,0.00,24.3,23.6,00.0,33.3,26.2,10.8,0000.0,0017.53,0004.97,0003.91
2021-11-11 17:35:00,,0827.4,5.00,0.00,24.4,23.6,00.0,33.3,26.2,10.7,0000.0,0017.21,0004.88,0003.87
2021-11-11 17:36:00,,0827.3,5.01,0.00,24.4,23.6,00.0,33.3,26.3,10.8,0000.0,0018.02,0004.83,0003.84
2021-11-11 17:37:00,,0827.2,4.99,0.00,24.4,23.6,00.0,33.3,26.3,10.7,0000.0,0018.95,0004.73,0003.80
2021-11-11 17:38:00,,0827.1,5.01,0.00,24.4,23.6,00.0,33.3,26.3,10.7,0000.0,0017.25,0004.70,0003.77
2021-11-11 17:39:00,,0827.2,5.00,0.00,24.4,23.6,00.0,33.3,26.3,10.7,0000.0,0017.12,0004.69,0003.75
2021-11-11 17:40:00,,0827.2,5.00,0.00,24.4,23.7,00.0,33.3,26.3,10.7,0000.0,0017.47,0004.65,0003.72
2021-11-11 17:41:00,,0827.2,5.00,0.00,24.4,23.7,00.0,33.4,26.3,10.5,0000.0,0017.66,0004.61,0003.70
2021-11-11 17:42:00,,0827.2,5.00,0.00,24.4,23.7,00.0,33.4,26.3,10.5,0000.0,0017.33,0004.59,0003.68
2021-11-11 17:43:00,,0827.2,5.00,0.00,24.4,23.7,00.0,33.4,26.3,10.5,0000.0,0016.01,0004.52,0003.66
2021-11-11 17:44:00,,0827.4,5.00,0.00,24.5,23.7,00.0,33.4,26.4,10.3,0000.0,0014.94,0004.50,0003.64
2021-11-11 17:45:00,,0827.0,5.00,0.00,24.5,23.7,00.0,33.4,26.4,10.4,0000.0,0014.98,0004.45,0003.62
2021-11-11 17:46:00,,0827.0,5.02,0.00,24.5,23.7,00.0,33.4,26.4,10.4,0000.0,0015.39,0004.44,0003.59
2021-11-11 17:47:00,,0827.0,5.00,0.00,24.5,23.7,00.0,33.4,26.4,10.3,0000.0,0014.66,0004.41,0003.57
2021-11-11 17:48:00,,0827.2,5.00,0.00,24.5,23.7,00.0,33.4,26.4,10.2,0000.0,0013.22,0004.41,0003.55
2021-11-11 17:49:00,,0827.2,5.00,0.00,24.5,23.7,00.0,33.4,26.4,10.3,0000.0,0013.61,0004.40,0003.52
2021-11-11 17:50:00,,0827.1,5.01,0.00,24.5,23.8,00.0,33.5,26.4,10.3,0000.0,0013.21,0004.39,0003.50
2021-11-11 17:51:00,,0827.0,5.01,0.00,24.5,23.8,00.0,33.5,26.4,10.3,0000.0,0013.47,0004.40,0003.46
2021-11-11 17:52:00,,0827.0,5.00,0.00,24.5,23.8,00.0,33.5,26.5,10.3,0000.0,0012.42,0004.38,0003.43
2021-11-11 17:53:00,,0827.0,4.99,0.00,24.6,23.8,00.0,33.5,26.5,10.3,0000.0,0012.38,0004.32,0003.41
2021-11-11 17:54:00,,0827.0,5.02,0.00,24.6,23.8,00.0,33.5,26.4,10.2,0000.0,0013.19,0004.32,0003.41
2021-11-11 17:55:00,,0826.9,5.00,0.00,24.6,23.8,00.0,33.5,26.4,10.1,0000.0,0014.07,0004.27,0003.38
2021-11-11 17:56:00,,0826.9,5.00,0.00,24.6,23.9,00.0,33.5,26.5,10.0,0000.0,0014.05,0004.24,0003.37
2021-11-11 17:57:00,,0826.9,4.99,0.00,24.6,23.9,00.0,33.5,26.5,10.0,0000.0,0013.17,0004.23,0003.35
2021-11-11 17:58:00,,0826.8,5.00,0.00,24.6,23.9,00.0,33.5,26.6,09.9,0000.0,0013.27,0004.20,0003.34
2021-11-11 17:59:00,,0826.8,5.01,0.00,24.7,23.9,00.0,33.6,26.6,10.0,0000.0,0013.18,0004.18,0003.31
